TimeCST,TemperatureF,Dew PointF,Humidity,Sea Level PressureIn,VisibilityMPH,Wind Direction,Wind SpeedMPH,Gust SpeedMPH,PrecipitationIn,Events,Conditions,WindDirDegrees,DateUTC
12:15 AM,34.7,33.3,94,29.71,4.0,NE,20.7,26.5,0.01,Snow-Thunderstorm,Light Thunderstorms and Snow,40,2012-12-20 06:15:00
12:35 AM,34.3,32.9,94,29.68,4.0,NE,18.4,-,0.03,Snow,Light Snow,50,2012-12-20 06:35:00
12:55 AM,33.8,32.7,96,29.67,1.8,NE,16.1,20.7,0.11,Snow-Thunderstorm,Light Thunderstorms and Snow,40,2012-12-20 06:55:00
1:35 AM,34.0,33.1,96,29.61,4.0,ENE,21.9,28.8,0.06,Snow,Light Snow,60,2012-12-20 07:35:00
1:55 AM,34.3,33.3,96,29.59,5.0,ENE,19.6,24.2,0.08,Rain,Light Rain,60,2012-12-20 07:55:00
2:15 AM,34.7,33.6,96,29.56,4.0,NE,20.7,29.9,0.02,Rain,Light Rain,50,2012-12-20 08:15:00
2:35 AM,34.7,33.4,95,29.55,7.0,ENE,17.3,23.0,0.03,Rain,Rain,60,2012-12-20 08:35:00
2:55 AM,34.7,33.4,95,29.54,4.0,NE,18.4,23.0,0.03,Rain,Light Rain,50,2012-12-20 08:55:00
3:15 AM,34.9,33.8,96,29.54,5.0,NNE,11.5,23.0,N/A,Rain,Light Rain,30,2012-12-20 09:15:00
3:35 AM,34.9,33.8,96,29.50,3.0,NE,16.1,21.9,0.01,Rain,Rain,40,2012-12-20 09:35:00
3:55 AM,34.9,34.0,97,29.49,3.0,North,10.4,19.6,0.02,,Drizzle,10,2012-12-20 09:55:00
4:15 AM,35.1,34.2,97,29.47,3.0,NNE,13.8,18.4,0.01,,Heavy Drizzle,30,2012-12-20 10:15:00
4:35 AM,34.9,34.2,97,29.46,2.5,NNE,11.5,18.4,0.02,Rain,Light Rain,30,2012-12-20 10:35:00
4:55 AM,34.9,34.2,97,29.42,3.0,NNE,16.1,19.6,0.02,Rain,Light Rain,30,2012-12-20 10:55:00
5:15 AM,35.1,34.3,97,29.38,5.0,NNE,15.0,-,N/A,Rain,Light Rain,30,2012-12-20 11:15:00
5:35 AM,35.6,34.7,97,29.37,7.0,NNE,13.8,21.9,N/A,Rain,Light Rain,30,2012-12-20 11:35:00
5:55 AM,35.6,34.7,97,29.34,10.0,NNE,19.6,24.2,N/A,,Overcast,30,2012-12-20 11:55:00
6:15 AM,35.8,34.7,96,29.35,7.0,NNE,12.7,-,N/A,Rain,Light Rain,20,2012-12-20 12:15:00
6:35 AM,35.8,34.7,96,29.35,7.0,North,11.5,20.7,N/A,Rain,Rain,360,2012-12-20 12:35:00
6:55 AM,35.6,34.7,97,29.35,2.5,North,12.7,17.3,0.02,Rain,Light Rain,10,2012-12-20 12:55:00
7:15 AM,35.6,34.3,95,29.34,2.5,North,15.0,18.4,0.07,,Overcast,360,2012-12-20 13:15:00
7:35 AM,35.2,34.0,95,29.33,3.0,North,13.8,19.6,0.14,Rain,Rain,360,2012-12-20 13:35:00
7:55 AM,35.6,34.2,94,29.32,1.8,North,17.3,21.9,0.19,Snow,Light Snow,10,2012-12-20 13:55:00
8:15 AM,35.6,34.0,94,29.30,1.8,North,15.0,25.3,0.05,,Overcast,360,2012-12-20 14:15:00
8:35 AM,35.4,33.8,94,29.28,5.0,North,18.4,26.5,0.06,Rain,Rain,360,2012-12-20 14:35:00
8:55 AM,35.2,33.8,94,29.28,2.0,North,17.3,26.5,0.10,Rain,Light Rain,360,2012-12-20 14:55:00
9:15 AM,35.1,33.4,94,29.27,5.0,North,21.9,29.9,0.02,Rain,Light Rain,360,2012-12-20 15:15:00
9:35 AM,35.1,33.4,94,29.25,5.0,North,21.9,28.8,0.02,Rain,Rain,10,2012-12-20 15:35:00
9:55 AM,34.9,32.9,92,29.26,3.0,North,23.0,32.2,0.03,Snow,Snow,10,2012-12-20 15:55:00
10:15 AM,34.3,32.7,94,29.24,1.5,North,24.2,32.2,0.04,Snow,Light Snow,360,2012-12-20 16:15:00
10:35 AM,34.5,32.7,93,29.23,3.0,North,25.3,33.4,0.08,Snow,Light Snow,360,2012-12-20 16:35:00
10:55 AM,33.8,32.0,93,29.21,4.0,North,24.2,32.2,0.13,Snow,Light Snow,360,2012-12-20 16:55:00
11:15 AM,33.8,32.0,93,29.22,1.5,NNW,20.7,33.4,0.04,Snow,Light Snow,340,2012-12-20 17:15:00
11:35 AM,33.1,32.0,96,29.21,1.0,NNW,21.9,32.2,0.04,Snow,Light Snow,340,2012-12-20 17:35:00
11:55 AM,33.1,32.0,96,29.21,0.5,NNW,21.9,31.1,0.05,Snow,Light Snow,330,2012-12-20 17:55:00
12:15 PM,33.3,32.0,95,29.21,0.5,NNW,21.9,32.2,N/A,Snow,Snow,340,2012-12-20 18:15:00
12:35 PM,33.1,32.0,96,29.21,0.5,NNW,23.0,34.5,0.01,Snow,Snow,330,2012-12-20 18:35:00
12:55 PM,33.1,32.0,96,29.22,0.2,NNW,21.9,32.2,0.01,Snow,Snow,340,2012-12-20 18:55:00
1:15 PM,33.1,32.0,96,29.22,0.5,NNW,23.0,33.4,N/A,Snow,Snow,340,2012-12-20 19:15:00
1:35 PM,32.9,32.0,96,29.22,0.5,NNW,25.3,33.4,N/A,Snow,Snow,330,2012-12-20 19:35:00
1:55 PM,32.9,32.0,96,29.24,0.5,NNW,23.0,35.7,N/A,Snow,Snow,330,2012-12-20 19:55:00
2:15 PM,32.9,32.0,96,29.26,0.5,NNW,21.9,34.5,N/A,Snow,Snow,330,2012-12-20 20:15:00
2:35 PM,32.9,31.8,96,29.27,0.5,NNW,25.3,35.7,N/A,Snow,Snow,330,2012-12-20 20:35:00
2:55 PM,32.5,31.6,96,29.29,0.5,NW,27.6,38.0,N/A,Snow,Snow,320,2012-12-20 20:55:00
3:15 PM,32.4,31.3,96,29.30,0.5,NW,26.5,35.7,N/A,Snow,Snow,320,2012-12-20 21:15:00
3:35 PM,32.0,31.1,96,29.32,0.5,NW,27.6,40.3,N/A,Snow,Snow,320,2012-12-20 21:35:00
3:55 PM,32.0,30.6,94,29.34,0.5,NW,25.3,42.6,N/A,Snow,Snow,320,2012-12-20 21:55:00
4:15 PM,32.0,30.2,93,29.37,0.5,NW,24.2,40.3,N/A,Snow,Snow,320,2012-12-20 22:15:00
4:35 PM,31.8,30.0,93,29.39,0.5,NW,19.6,38.0,N/A,Snow,Snow,310,2012-12-20 22:35:00
4:55 PM,31.5,29.8,94,29.42,1.2,NW,25.3,34.5,N/A,Snow,Light Snow,320,2012-12-20 22:55:00
5:15 PM,31.5,29.7,93,29.44,1.2,NW,25.3,33.4,N/A,Snow,Light Snow,310,2012-12-20 23:15:00
5:35 PM,31.5,29.3,92,29.46,1.5,NW,20.7,35.7,N/A,Snow,Light Snow,310,2012-12-20 23:35:00
5:55 PM,31.1,29.3,93,29.48,1.8,WNW,20.7,32.2,N/A,Snow,Light Snow,300,2012-12-20 23:55:00
6:15 PM,30.9,28.6,91,29.50,1.5,NW,21.9,34.5,N/A,Snow,Light Snow,310,2012-12-21 00:15:00
6:35 PM,30.2,27.9,91,29.51,1.8,NW,24.2,33.4,N/A,Snow,Light Snow,310,2012-12-21 00:35:00
6:55 PM,30.6,27.3,88,29.53,2.0,NW,21.9,42.6,N/A,Snow,Light Snow,310,2012-12-21 00:55:00
7:15 PM,30.4,26.6,86,29.55,2.5,NW,26.5,38.0,N/A,Snow,Light Snow,310,2012-12-21 01:15:00
7:35 PM,30.6,26.2,84,29.56,3.0,NW,19.6,34.5,N/A,,Overcast,310,2012-12-21 01:35:00
7:55 PM,30.2,25.7,83,29.57,4.0,NW,25.3,34.5,N/A,,Overcast,310,2012-12-21 01:55:00
8:15 PM,30.2,25.3,82,29.58,3.0,NW,21.9,39.1,N/A,Snow,Light Snow,310,2012-12-21 02:15:00
8:35 PM,30.0,24.8,81,29.59,4.0,NW,24.2,34.5,N/A,,Haze,310,2012-12-21 02:35:00
8:55 PM,29.8,24.6,81,29.61,4.0,NW,20.7,36.8,N/A,,Haze,310,2012-12-21 02:55:00
9:15 PM,29.8,24.4,80,29.62,4.0,NW,23.0,32.2,N/A,,Haze,310,2012-12-21 03:15:00
9:35 PM,29.7,24.3,80,29.63,7.0,NW,21.9,32.2,N/A,,Mostly Cloudy,310,2012-12-21 03:35:00
9:55 PM,29.7,24.3,80,29.65,4.0,NW,24.2,34.5,N/A,,Haze,310,2012-12-21 03:55:00
10:15 PM,29.5,23.9,80,29.66,5.0,WNW,23.0,33.4,N/A,,Haze,300,2012-12-21 04:15:00
10:35 PM,29.3,23.9,80,29.67,7.0,NW,20.7,31.1,N/A,,Scattered Clouds,310,2012-12-21 04:35:00
10:55 PM,28.9,23.5,80,29.69,7.0,WNW,23.0,33.4,N/A,,Mostly Cloudy,300,2012-12-21 04:55:00
11:15 PM,28.4,23.0,80,29.71,7.0,WNW,17.3,29.9,N/A,,Mostly Cloudy,300,2012-12-21 05:15:00
11:35 PM,28.2,23.0,81,29.71,10.0,WNW,20.7,31.1,N/A,,Mostly Cloudy,300,2012-12-21 05:35:00
11:55 PM,27.5,22.5,81,29.73,10.0,WNW,19.6,25.3,N/A,,Mostly Cloudy,300,2012-12-21 05:55:00